This demonstration page uses our WeatherBlox Daily Observations layout. Learn more.

41.55636, -103.73856

Hourly Observations for May 3, 2015

Temp ( °F °C ) Dew Point ( °F °C ) Humidity (%) Winds ( mph kmh ) Pressure ( in mb ) Visibility ( mi km ) Precip ( " mm )
12:53 am 00:53 Clear 57 13.9 42 5.6 58 58 WSW 8 13 29.7 1006 10 16.0934 0 0
1:53 am 01:53 Clear 56 13.3 41 5 57 57 NNW 3 6 29.69 1005 10 16.0934 0 0
2:53 am 02:53 Clear 56 13.3 41 5 57 57 NNW 5 7 29.69 1005 10 16.0934 0 0
3:53 am 03:53 Clear 54 12.2 41 5 62 62 Calm 29.69 1005 10 16.0934 0 0
4:53 am 04:53 Clear 50 10 41 5 71 71 NNW 9 15 29.71 1006 10 16.0934 0 0
5:53 am 05:53 Sunny 51 10.6 41 5 69 69 VRB 7 11 29.71 1006 10 16.0934 0 0
6:53 am 06:53 Sunny 50 10 42 5.6 74 74 NNW 6 9 29.75 1008 10 16.0934 0 0
7:53 am 07:53 Sunny 59 15 43 6.1 56 56 NW 9 15 29.77 1008 10 16.0934 0 0
8:53 am 08:53 Sunny 66 18.9 39 3.9 37 37 NNW 14 22 29.8 1009 10 16.0934 0 0
9:53 am 09:53 Sunny 64 17.8 35 1.7 34 34 N 15 24 29.85 1011 10 16.0934 0 0
10:53 am 10:53 Sunny 66 18.9 36 2.2 33 33 NNE 14 22 29.86 1011 10 16.0934 0 0
11:53 am 11:53 Sunny 70 21.1 38 3.3 31 31 NE 12 19 29.86 1011 10 16.0934 0 0
12:53 pm 12:53 Sunny 71 21.7 39 3.9 31 31 ENE 13 20 29.86 1011 10 16.0934 0 0
1:53 pm 13:53 Sunny 72 22.2 39 3.9 30 30 NE 14 22 29.85 1011 10 16.0934 0 0
2:53 pm 14:53 Sunny 72 22.2 39 3.9 30 30 NE 16 26 29.85 1011 10 16.0934 0 0
3:53 pm 15:53 Sunny 70 21.1 38 3.3 31 31 NE 14 22 29.86 1011 10 16.0934 0 0
4:53 pm 16:53 Mostly Sunny 68 20 38 3.3 33 33 NE 10 17 29.9 1012 10 16.0934 0 0
5:53 pm 17:53 Sunny 68 20 38 3.3 33 33 E 15 24 29.89 1012 10 16.0934 0 0
6:53 pm 18:53 Sunny 66 18.9 38 3.3 36 36 E 10 17 29.91 1013 10 16.0934 0 0
7:53 pm 19:53 Sunny 62 16.7 40 4.4 44 44 ENE 12 19 29.91 1013 10 16.0934 0 0
8:53 pm 20:53 Clear 59 15 41 5 51 51 NE 12 19 29.92 1013 10 16.0934 0 0
9:53 pm 21:53 Mostly Clear 56 13.3 41 5 57 57 ENE 9 15 29.96 1015 10 16.0934 0 0
10:53 pm 22:53 Clear 53 11.7 40 4.4 61 61 E 8 13 29.97 1015 10 16.0934 0 0
11:53 pm 23:53 Clear 53 11.7 40 4.4 61 61 ENE 5 7 29.98 1015 10 16.0934 0 0

Powered by AerisWeather